Temperature
7 7 7 7 7 7 7 7 7 6 6 6 6 6 6 6 6 5 5 5 5 5 5 5 5 4 4 4 4 3 3 3 3 3 3 3 3 3 3 3 3 3 3
6 6 7 7 7 6 6 6 6 6 6 6 5 5 5 5 5 5 5 5 5 5 5 4 4 4 4 4 3 3 3 3 2 2 2 2 3 2 2 2 3 3 3
6 6 6 6 6 6 6 6 6 5 5 5 5 5 5 5 5 5 5 4 4 4 4 4 4 3 3 3 3 2 2 2 2 2 2 2 2 2 2 2 2 2 2
5 5 5 5 5 5 5 5 5 5 5 5 5 5 4 4 4 4 4 4 4 3 3 3 3 3 3 3 2 2 2 2 1 1 1 1 1 1 1 1 2 2 2
4 5 5 5 5 5 5 5 5 5 5 5 4 4 4 4 4 4 4 3 3 3 3 3 3 2 2 2 2 2 2 1 1 1 1 1 1 1 1 1 1 1 1
4 4 4 4 4 4 4 4 4 4 4 4 4 4 4 3 3 3 3 3 2 2 2 2 2 2 2 2 2 1 1 1 1 1 1 0 0 0 0 0 0 0 0
3 3 3 3 4 4 4 4 4 4 4 3 3 3 3 3 3 3 2 2 2 2 2 1 1 2 1 1 1 1 1 1 1 0 0 0 -0 -0 -0 -0 -0 -1 -1
3 3 3 3 3 3 3 3 3 3 3 3 3 2 2 2 2 2 2 2 1 1 1 1 1 1 0 0 0 0 0 0 0 0 -0 -0 -0 -0 -1 -1 -1 -1 -1
2 2 2 2 2 2 2 2 2 2 2 2 2 2 2 2 2 1 1 1 1 1 1 0 0 0 -0 -0 -0 -0 -0 -0 -0 -0 -1 -1 -1 -1 -1 -1 -1 -1 -1
1 1 1 1 1 1 2 2 2 2 1 1 1 1 1 1 1 1 0 0 -0 -0 -0 -0 -0 -1 -1 -1 -1 -1 -1 -1 -1 -1 -1 -1 -1 -1 -1 -1 -1 -1 -2
0 1 1 1 1 1 1 1 1 1 1 1 0 0 0 0 0 0 -0 -0 -1 -1 -1 -1 -1 -1 -1 -1 -1 -1 -1 -1 -1 -1 -1 -1 -1 -1 -1 -1 -2 -2 -2
-0 -0 0 0 0 0 0 0 0 0 -0 -0 -0 -0 -0 -0 -0 -1 -1 -1 -1 -1 -1 -1 -2 -1 -1 -1 -1 -1 -1 -1 -2 -2 -2 -2 -2 -2 -2 -2 -2 -2 -2
-1 -1 -1 -1 -0 -0 -0 -0 -1 -1 -1 -1 -1 -1 -1 -1 -1 -1 -1 -1 -1 -2 -2 -2 -2 -2 -2 -2 -2 -2 -2 -2 -2 -2 -2 -2 -2 -2 -2 -2 -2 -2 -2
-1 -1 -1 -1 -1 -1 -1 -1 -1 -1 -2 -2 -2 -2 -2 -2 -2 -2 -2 -2 -2 -2 -2 -2 -2 -2 -2 -2 -2 -2 -2 -2 -3 -3 -3 -2 -2 -2 -2 -2 -2 -2 -2
-2 -2 -2 -2 -2 -2 -2 -2 -2 -2 -2 -2 -2 -2 -3 -2 -2 -2 -2 -2 -2 -2 -2 -2 -2 -2 -2 -2 -2 -3 -3 -3 -3 -3 -3 -3 -3 -3 -3 -3 -3 -2 -3
-2 -2 -2 -2 -2 -2 -2 -2 -2 -3 -3 -3 -3 -3 -3 -3 -3 -3 -3 -3 -3 -3 -3 -3 -3 -3 -3 -3 -3 -3 -3 -3 -3 -3 -3 -3 -3 -3 -3 -3 -3 -3 -3
-3 -3 -3 -3 -3 -3 -3 -3 -3 -3 -3 -3 -3 -3 -3 -3 -3 -3 -3 -3 -3 -3 -3 -3 -3 -3 -3 -3 -3 -4 -4 -3 -4 -4 -4 -4 -4 -4 -3 -3 -3 -4 -3
-3 -3 -3 -3 -3 -3 -3 -4 -4 -4 -4 -3 -3 -3 -3 -3 -3 -3 -3 -3 -3 -3 -3 -4 -4 -4 -4 -4 -4 -4 -4 -4 -4 -4 -4 -4 -4 -4 -4 -4 -4 -4 -4
-4 -4 -4 -4 -4 -4 -4 -4 -4 -4 -4 -4 -4 -4 -4 -4 -4 -4 -4 -4 -4 -4 -4 -4 -4 -4 -4 -4 -4 -4 -4 -4 -4 -4 -4 -4 -4 -4 -4 -4 -4 -4 -4
-4 -4 -4 -4 -4 -4 -5 -5 -5 -5 -5 -5 -5 -4 -4 -4 -4 -4 -4 -4 -4 -5 -5 -5 -5 -5 -5 -4 -5 -5 -5 -5 -5 -5 -4 -5 -5 -5 -5 -5 -5 -5 -5
-5 -5 -5 -5 -5 -5 -5 -5 -5 -5 -5 -5 -5 -5 -5 -5 -5 -5 -5 -5 -5 -5 -5 -5 -5 -5 -5 -5 -5 -5 -5 -5 -5 -5 -5 -5 -5 -5 -5 -5 -5 -5 -5
-5 -5 -5 -6 -6 -6 -6 -6 -6 -6 -6 -6 -6 -5 -5 -5 -5 -5 -5 -5 -5 -5 -5 -5 -5 -5 -5 -5 -5 -5 -5 -5 -5 -5 -5 -5 -5 -5 -5 -5 -5 -5 -5
-6 -6 -6 -6 -6 -6 -6 -6 -6 -6 -6 -6 -6 -6 -6 -6 -6 -6 -6 -6 -6 -6 -6 -6 -6 -5 -5 -5 -5 -5 -5 -5 -5 -5 -5 -5 -5 -5 -5 -5 -5 -5 -5
-6 -6 -6 -7 -7 -7 -7 -7 -7 -7 -7 -6 -6 -6 -6 -6 -6 -6 -6 -6 -6 -6 -6 -6 -6 -6 -6 -5 -5 -5 -5 -5 -5 -5 -5 -5 -5 -5 -5 -6 -5 -5 -5
-7 -7 -7 -7 -7 -7 -7 -7 -7 -7 -7 -7 -7 -7 -7 -7 -7 -6 -6 -6 -6 -6 -6 -6 -6 -6 -6 -5 -5 -5 -5 -5 -5 -5 -5 -5 -5 -5 -6 -6 -6 -6 -6
-7 -7 -7 -7 -7 -7 -7 -7 -7 -7 -7 -7 -7 -7 -7 -7 -7 -7 -7 -6 -6 -6 -6 -6 -6 -6 -6 -5 -5 -5 -5 -5 -5 -5 -5 -5 -5 -5 -5 -6 -6 -6 -6
Wind_Speed
5 5 5 4 4 4 3 3 3 2 2 2 2 2 3 3 3 3 4 4 4 4 4 5 6 6 5 5 5 5 6 6 9 9 8 9 10 10 10 11 11 11 12
4 4 4 4 4 4 3 3 3 2 2 2 2 2 3 3 3 4 4 4 5 5 5 6 6 5 6 6 5 6 6 6 8 10 10 9 10 10 10 11 10 10 11
4 4 4 4 4 3 3 2 2 2 2 1 2 2 3 3 3 4 4 5 5 5 6 6 6 6 7 6 6 6 6 6 6 8 9 8 8 8 10 10 10 9 10
3 3 3 3 3 2 2 1 1 1 1 2 2 2 3 3 4 4 4 5 5 5 5 5 6 6 7 7 6 6 6 6 6 7 7 7 7 8 8 8 9 9 9
3 3 2 2 2 2 1 1 1 1 1 1 2 2 3 3 3 4 4 4 5 5 5 5 5 6 7 6 5 6 5 5 6 6 7 7 7 7 7 7 9 10 9
3 2 2 2 2 1 1 0 0 1 1 1 2 2 3 3 3 5 5 4 5 5 5 5 5 5 5 6 7 7 7 7 7 6 7 7 8 8 8 8 9 9 8
3 2 2 2 1 1 0 0 1 1 1 2 2 3 4 4 4 5 5 4 4 5 5 5 4 4 5 5 5 6 6 7 7 7 7 7 8 8 9 9 9 10 9
2 2 2 2 1 0 0 1 1 1 2 2 3 3 4 4 4 4 4 4 4 4 5 5 5 5 4 5 5 5 5 5 5 5 5 6 7 8 8 8 9 10 9
2 2 2 2 1 1 1 1 2 2 2 2 3 3 3 3 3 4 4 3 3 4 4 4 4 4 4 5 5 5 6 5 5 6 7 7 8 9 8 6 7 7 7
1 2 2 2 2 2 2 2 2 2 2 2 3 3 3 3 3 3 4 2 3 3 3 3 3 4 4 5 5 5 6 6 6 6 6 6 7 7 8 6 6 6 6
2 2 2 2 2 2 2 2 2 2 2 2 2 3 3 3 3 3 4 3 3 3 3 3 3 4 5 5 5 4 5 6 6 6 6 6 6 5 6 6 5 5 6
1 1 2 2 2 2 2 2 1 1 2 2 2 2 2 2 3 3 3 3 4 3 3 3 3 4 5 6 4 4 6 6 4 4 5 5 6 6 6 7 7 7 7
1 1 2 3 2 2 2 2 1 1 1 2 2 2 2 2 2 3 3 4 4 3 3 3 4 5 5 4 4 5 5 4 4 4 5 6 6 6 7 6 7 7 7
2 2 2 2 2 2 2 2 1 1 2 2 2 2 2 3 3 2 2 2 2 3 3 3 4 4 4 4 4 4 3 4 4 5 5 6 6 5 6 6 6 6 5
2 2 2 2 2 2 2 2 2 2 2 3 2 2 3 3 3 5 4 3 3 3 3 3 3 3 3 3 3 3 3 3 4 4 5 5 5 6 6 6 5 5 5
2 2 2 2 2 2 2 2 2 2 3 3 3 3 3 4 5 5 5 5 4 3 3 3 3 3 3 3 4 4 4 4 4 5 5 5 5 6 6 5 5 5 5
2 3 2 2 2 2 2 2 2 2 2 2 2 3 3 4 5 5 4 4 3 3 3 3 3 3 3 4 4 4 4 5 4 5 5 5 5 5 6 6 5 5 5
3 3 3 2 2 3 3 3 2 2 3 2 2 2 3 4 4 4 4 3 2 2 2 3 4 4 4 4 4 4 5 5 4 5 5 5 5 5 5 6 5 6 6
3 2 2 2 3 3 2 2 3 3 3 3 3 2 2 3 3 3 3 2 3 3 3 3 4 4 4 4 4 5 5 5 5 5 5 5 5 5 5 5 5 7 6
2 3 3 3 2 2 2 2 2 3 3 3 3 3 2 3 3 3 3 3 3 3 4 4 4 4 4 4 5 5 5 5 5 5 5 5 5 5 6 6 5 5 5
2 2 3 3 2 2 2 2 2 3 3 3 3 3 4 3 3 4 4 3 3 4 4 4 4 4 4 4 5 5 6 5 5 5 5 5 5 5 5 5 5 5 5
2 2 2 2 2 2 2 2 3 3 3 3 3 4 5 3 3 4 4 4 4 4 4 4 5 4 4 5 5 5 5 5 5 5 5 5 5 5 5 4 4 4 4
2 2 2 2 2 3 3 2 2 3 3 3 3 3 3 3 3 4 4 4 4 4 5 5 5 5 5 5 5 5 6 6 6 6 5 5 5 4 4 4 4 4 4
2 2 2 2 2 2 2 3 3 3 3 3 3 3 4 4 4 4 4 4 4 4 5 5 5 6 7 6 6 6 6 7 7 6 6 5 5 4 4 4 4 4 4
2 2 2 2 2 2 2 3 3 3 3 3 3 4 4 4 4 4 4 4 5 5 5 5 5 6 7 8 7 7 8 8 8 6 5 4 4 4 4 4 4 4 4
2 2 2 2 2 3 3 3 3 3 3 4 4 4 4 4 4 4 4 4 4 5 5 5 6 7 8 7 8 8 8 8 7 7 5 4 3 3 4 3 3 3 3
Wind_Direction
158 160 160 160 161 162 165 169 171 179 189 204 223 242 253 262 266 266 268 272 274 277 277 272 269 270 271 271 270 268 269 272 278 289 297 302 306 307 311 314 314 311 308
148 150 150 149 151 155 159 165 170 178 187 208 225 242 255 261 265 266 272 274 273 276 278 278 280 279 273 274 273 272 272 271 275 286 294 301 304 308 311 313 314 312 310
130 140 142 143 146 151 154 156 167 182 195 214 229 244 257 266 269 270 271 273 274 276 278 280 284 286 284 281 277 276 276 276 276 281 291 299 304 310 314 313 313 315 315
116 127 131 134 138 141 143 154 174 194 208 228 242 257 267 270 270 271 272 274 277 281 283 283 285 284 285 288 284 282 286 286 284 283 288 297 303 310 314 314 315 318 316
101 111 115 110 109 114 123 151 188 220 229 241 255 267 271 270 271 273 274 274 277 282 285 288 290 294 296 293 292 294 291 286 286 286 290 295 301 311 314 313 312 314 312
89 89 95 101 100 103 113 142 221 243 245 252 259 263 270 276 283 277 277 273 276 278 283 288 290 291 296 297 297 296 295 289 287 288 292 294 302 309 313 314 313 314 311
76 73 72 85 95 94 102 206 273 268 263 262 266 266 269 281 284 277 274 275 272 276 280 284 291 295 297 294 297 298 302 301 295 289 291 295 301 309 311 311 310 306 301
68 58 44 48 47 24 340 290 286 275 265 263 267 269 272 282 289 277 275 270 271 274 278 282 284 291 301 304 304 307 311 311 309 297 291 296 304 309 308 302 300 299 293
49 30 19 8 351 324 305 300 292 276 268 269 269 271 275 287 291 279 276 268 269 277 285 292 292 294 310 310 305 307 310 314 323 316 308 305 308 314 314 305 306 308 305
3 350 351 350 329 311 304 298 287 272 271 273 273 277 279 286 299 290 278 264 267 279 293 299 307 306 310 311 304 303 304 309 312 314 311 310 308 311 313 306 301 301 302
332 332 340 343 324 315 311 300 291 276 275 279 282 289 288 295 308 311 298 279 271 279 286 292 299 309 310 313 309 300 300 304 304 305 307 311 311 312 315 313 303 291 291
331 334 337 335 328 315 312 309 303 282 279 282 287 302 307 313 319 321 319 309 295 282 286 292 300 312 311 311 308 308 309 308 302 304 306 309 311 312 311 308 302 290 279
324 328 328 326 320 309 304 303 302 287 274 283 289 299 311 315 326 337 332 328 320 299 294 304 308 309 307 305 315 317 312 305 302 302 303 304 306 306 307 305 302 297 290
318 322 318 314 314 316 308 302 294 280 273 279 286 294 306 312 315 321 321 319 314 301 295 303 307 308 303 308 311 311 306 303 301 297 299 300 303 306 308 308 304 309 306
315 315 312 305 303 313 315 311 296 285 271 266 273 279 287 294 309 318 313 304 300 294 297 292 293 294 299 302 303 306 308 306 304 300 298 301 305 308 309 313 306 307 306
304 306 304 302 304 304 308 313 321 294 292 282 277 278 291 295 306 309 312 311 307 300 297 285 286 291 296 299 303 306 306 305 302 300 299 299 302 305 306 307 307 307 307
286 291 291 290 289 289 291 290 302 323 319 304 300 295 292 299 303 303 308 312 301 297 287 283 285 288 291 294 296 295 297 300 299 297 297 297 298 299 300 302 305 306 308
288 282 279 276 275 274 276 280 279 287 303 312 317 306 305 308 307 305 302 298 292 291 280 280 283 286 288 290 291 291 293 295 296 296 296 297 297 297 297 299 302 305 304
286 277 276 273 274 275 274 276 277 278 281 290 301 305 309 314 313 312 307 286 279 281 282 282 283 284 285 286 287 287 288 290 294 295 295 295 296 296 296 298 299 304 301
286 280 281 276 276 276 276 274 276 279 282 286 291 297 305 306 301 307 303 293 285 283 282 281 284 284 285 285 285 285 285 287 291 291 293 294 295 293 294 295 299 301 301
282 281 282 281 277 278 277 276 278 281 281 284 292 298 296 292 291 293 293 291 287 286 284 281 281 283 282 283 282 282 284 287 289 291 292 294 295 294 294 294 298 300 302
272 274 274 274 275 273 276 277 278 280 285 289 294 300 301 291 285 285 288 289 288 286 284 282 281 283 284 284 285 284 285 287 289 290 292 293 292 292 291 292 296 300 301
263 265 269 269 267 269 275 275 275 279 284 288 294 298 296 290 287 287 288 290 290 286 286 284 284 286 286 284 280 280 283 285 288 289 289 289 291 292 292 292 294 299 301
269 264 263 263 263 263 266 272 276 279 283 287 289 291 291 289 288 288 289 291 289 288 289 290 287 288 289 289 288 284 281 284 287 283 283 284 287 289 291 292 295 296 298
267 261 260 261 260 261 264 269 274 277 279 280 284 285 285 285 287 289 291 292 293 292 294 296 295 293 291 290 289 290 291 290 289 287 280 280 283 286 287 289 291 300 302
266 262 260 260 261 263 264 268 272 276 278 279 280 280 282 283 286 289 291 292 294 293 294 296 295 295 296 296 292 293 296 295 294 292 286 280 276 278 283 282 291 296 300
Height
1494 1497 1499 1501 1502 1504 1506 1507 1508 1509 1509 1509 1510 1510 1510 1509 1508 1508 1507 1506 1505 1504 1503 1502 1500 1499 1498 1496 1495 1494 1493 1491 1487 1482 1481 1478 1476 1473 1470 1468 1464 1461 1457
1492 1494 1496 1498 1500 1501 1503 1504 1505 1505 1506 1506 1506 1506 1506 1505 1505 1504 1503 1502 1501 1500 1499 1498 1496 1495 1494 1492 1491 1489 1488 1486 1484 1479 1476 1474 1471 1469 1466 1463 1460 1456 1453
1490 1492 1494 1495 1497 1498 1500 1501 1502 1502 1503 1503 1503 1503 1502 1502 1501 1500 1499 1499 1497 1496 1495 1494 1492 1491 1489 1488 1486 1485 1483 1481 1479 1476 1472 1470 1467 1465 1462 1459 1455 1452 1448
1488 1490 1491 1493 1494 1496 1497 1498 1499 1499 1499 1499 1499 1499 1499 1498 1497 1496 1495 1494 1493 1492 1491 1490 1488 1487 1485 1483 1482 1480 1479 1477 1475 1472 1469 1466 1463 1461 1458 1454 1450 1447 1444
1487 1488 1489 1491 1492 1493 1494 1495 1495 1496 1496 1496 1496 1495 1495 1494 1493 1492 1491 1490 1489 1488 1487 1485 1484 1483 1481 1480 1478 1476 1474 1472 1471 1468 1465 1462 1460 1457 1454 1451 1447 1443 1440
1485 1486 1487 1489 1490 1491 1491 1492 1492 1492 1492 1492 1492 1491 1491 1490 1489 1489 1488 1486 1485 1484 1482 1481 1480 1478 1477 1475 1474 1472 1471 1469 1467 1465 1462 1459 1456 1454 1451 1448 1444 1440 1435
1484 1485 1486 1487 1487 1488 1488 1489 1489 1489 1488 1488 1488 1487 1487 1486 1486 1485 1484 1483 1481 1480 1478 1477 1475 1474 1473 1471 1470 1468 1467 1465 1464 1462 1459 1456 1453 1451 1448 1445 1442 1438 1434
1483 1484 1484 1485 1485 1485 1485 1485 1485 1485 1485 1484 1484 1483 1483 1482 1481 1481 1480 1479 1477 1476 1475 1473 1472 1470 1469 1468 1466 1464 1463 1461 1460 1458 1456 1453 1450 1448 1445 1443 1439 1435 1431
1481 1482 1482 1483 1483 1483 1482 1482 1482 1482 1481 1480 1480 1480 1479 1478 1478 1477 1476 1474 1473 1472 1471 1470 1468 1467 1466 1464 1463 1461 1459 1457 1456 1454 1452 1449 1447 1445 1442 1439 1436 1432 1428
1480 1480 1480 1480 1480 1480 1479 1479 1478 1478 1477 1477 1477 1476 1475 1475 1474 1473 1472 1471 1470 1469 1467 1466 1465 1464 1463 1461 1460 1458 1456 1454 1452 1450 1448 1446 1443 1441 1439 1437 1433 1430 1426
1478 1478 1478 1478 1478 1477 1476 1476 1475 1475 1474 1474 1473 1473 1472 1471 1470 1470 1469 1468 1467 1466 1464 1463 1462 1461 1460 1458 1457 1455 1453 1452 1450 1447 1445 1443 1441 1438 1436 1433 1431 1428 1425
1476 1476 1476 1475 1475 1474 1473 1473 1472 1472 1471 1470 1470 1469 1469 1468 1467 1466 1466 1465 1464 1463 1461 1460 1459 1458 1456 1455 1454 1452 1451 1449 1447 1445 1442 1440 1438 1436 1433 1431 1428 1425 1422
1474 1474 1473 1473 1472 1472 1471 1470 1469 1468 1468 1467 1467 1466 1465 1465 1464 1463 1463 1462 1461 1460 1458 1457 1456 1454 1453 1452 1451 1449 1448 1446 1444 1442 1439 1437 1435 1433 1431 1428 1425 1422 1419
1472 1471 1471 1470 1470 1469 1468 1467 1466 1466 1465 1464 1464 1463 1462 1462 1461 1460 1460 1459 1458 1456 1455 1454 1453 1452 1450 1449 1448 1446 1445 1443 1441 1439 1437 1435 1433 1430 1428 1425 1422 1419 1416
1469 1469 1468 1468 1467 1466 1465 1465 1464 1463 1463 1462 1461 1461 1460 1459 1458 1458 1457 1456 1455 1454 1452 1451 1450 1448 1447 1446 1444 1443 1442 1440 1438 1436 1434 1432 1430 1427 1425 1422 1420 1417 1414
1466 1466 1466 1465 1464 1463 1462 1462 1461 1461 1460 1459 1458 1458 1457 1457 1456 1455 1454 1453 1452 1451 1449 1448 1446 1445 1444 1443 1441 1440 1438 1437 1435 1433 1431 1429 1427 1424 1422 1420 1417 1415 1412
1464 1463 1463 1462 1461 1460 1460 1459 1458 1458 1457 1456 1455 1455 1454 1453 1453 1452 1451 1450 1449 1448 1446 1445 1444 1442 1441 1440 1438 1437 1435 1434 1432 1430 1429 1426 1424 1422 1419 1417 1415 1413 1410
1461 1460 1460 1459 1458 1458 1457 1456 1455 1454 1454 1453 1453 1452 1451 1451 1450 1449 1448 1447 1446 1444 1443 1442 1441 1439 1438 1437 1435 1434 1433 1431 1429 1427 1426 1424 1421 1419 1417 1415 1413 1410 1408
1458 1457 1457 1456 1456 1455 1454 1453 1452 1452 1451 1450 1449 1449 1448 1448 1447 1446 1445 1444 1443 1441 1440 1439 1438 1437 1435 1434 1432 1431 1430 1428 1426 1424 1423 1421 1419 1417 1414 1412 1410 1408 1406
1455 1455 1454 1454 1453 1452 1451 1450 1449 1448 1448 1447 1446 1446 1445 1445 1444 1443 1442 1441 1440 1439 1438 1436 1435 1434 1433 1431 1430 1428 1427 1425 1423 1421 1420 1418 1416 1414 1412 1410 1408 1406 1404
1453 1452 1452 1451 1450 1449 1448 1447 1446 1446 1445 1444 1444 1443 1443 1442 1441 1440 1439 1438 1437 1436 1435 1433 1432 1431 1430 1428 1427 1425 1424 1422 1420 1419 1417 1415 1413 1412 1410 1408 1406 1404 1402
1450 1449 1449 1448 1447 1446 1446 1445 1444 1443 1443 1442 1441 1440 1440 1439 1438 1437 1436 1435 1434 1433 1432 1431 1429 1428 1427 1425 1424 1422 1421 1419 1418 1416 1414 1413 1411 1409 1408 1406 1404 1403 1401
1447 1447 1446 1445 1445 1444 1443 1442 1442 1441 1440 1439 1439 1438 1437 1436 1435 1434 1433 1432 1431 1430 1429 1428 1426 1425 1424 1423 1421 1420 1419 1417 1416 1414 1412 1410 1409 1407 1406 1404 1403 1401 1399
1445 1444 1443 1443 1442 1441 1441 1440 1439 1438 1438 1437 1436 1435 1434 1433 1432 1431 1430 1429 1428 1427 1426 1425 1423 1422 1421 1420 1418 1417 1416 1415 1413 1412 1410 1408 1407 1405 1404 1402 1401 1400 1398
1442 1441 1441 1440 1440 1439 1438 1437 1436 1436 1435 1434 1433 1433 1432 1431 1430 1428 1427 1426 1425 1424 1423 1422 1420 1419 1418 1417 1416 1415 1413 1412 1411 1409 1408 1406 1405 1403 1402 1401 1400 1398 1397
1439 1439 1438 1438 1437 1436 1435 1434 1434 1433 1432 1432 1431 1430 1429 1428 1427 1426 1424 1423 1422 1421 1420 1418 1417 1416 1415 1414 1413 1412 1411 1409 1408 1407 1406 1404 1403 1402 1401 1400 1399 1398 1397